NOAA 16 DEB, 42393

Orbit data source: Space-Track

NOAA 16 DEB, 42393 is space debris in SSO originally from a launch on Thu, 21 Sep 2000 UTC launched from the Air Force Western Test Range (AFWTR). Debris objects in space refer to the collection of defunct objects orbiting the Earth. Examples of debris include non-operational satellites, rocket bodies, and fragments generated from explosions, collisions, or faulty payload assembly.

Loading next visibility...
Identifier
42393, 2000-055SM
Orbit
SSO
Country
Flag of USUS
Related business
Manufacturer
Unknown
Mission
Spacecraft
Bus & Motor
Unknown
Mass
Unknown
Launch date (UTC)
2000-09-21 (25 years ago)
Launch vehicle
Unknown
Launch site
Air Force Western Test Range (AFWTR)
Object type
Payload
Rocket body
Debris
Shape & HBR
Unknown shape, 0.1 m
Radar Cross Section
Small (<0.1 m²)

Expand to show TLE details & history
Last TLE update: 1 day ago

TLE from 1 day ago
0 NOAA 16 DEB
1 42393U 00055SM  26037.18591435  .00010251  00000-0  41899-2 0  9997
2 42393  98.9198 127.6151 0039612 272.7938  86.8708 14.27023645510567
Epoch: 2026-02-06T04:27Z
TLE epoch observation values (Epoch: 2026-02-06T04:27:42.999Z)
Latitude
-0.00007°
Longitude
-75.64146°
Altitude
803.174 km
Speed
7.453 km/s
True Right ascension
08h 30m 27s
True Declination
0° 00' 00"
Sunlit
Object was in full shadow at epoch
Visualization orbit readout
Latitude
Unknown
Longitude
Unknown
Altitude
Unknown
Speed
Unknown
Apparent Right ascension
Unknown
Apparent Declination
Unknown
Sunlit
N/A
Visualization observer readout
Local Sidereal Time
12:35:02
Azimuth
Unknown
Elevation
Unknown
Doppler factor
Unknown
Orbital elements
Apogee altitude
827.286 km
Perigee altitude
770.427 km
Semi-major axis
7,176.993 km
Eccentricity
0.00396
Inclination
98.9198°
RAAN
127.6151°
Arg. of periapsis
272.7938°
True anomaly
87.32416°
Mean anomaly
86.8708°
Eccentric anomaly
87.09747°
Mean motion
3.56968 °/min
Orbital period
100.85 mins
BSTAR
0.0041899
Loading maneuver chart data...
Computing Atmospheric mass density...
Loading historical data...
Loading historical data...
Loading historical data...
Loading historical data...
Loading historical data...
Loading historical data...
Loading historical data...

Documentation

Showing up to 5 results
|